Wind_Speed
11 11 12 12 12 12 12 12 12 12 11 11 11 11 10 10 10 10 10 10 9 9 9 9 9 9 9 9 10 10 10 10 10 9 9 9 9 9 9 9 9 9 8
13 12 12 13 13 13 14 14 14 14 13 13 13 13 13 13 13 12 12 12 12 11 11 11 11 11 11 11 10 11 11 11 11 11 11 11 11 10 11 11 11 10 10
14 14 14 14 14 14 15 16 16 16 16 16 15 15 15 15 15 14 14 14 13 13 13 12 13 13 12 12 12 12 13 13 12 12 12 12 12 12 12 12 12 12 12
15 15 15 15 16 16 16 17 17 18 18 18 18 18 18 18 17 17 16 16 15 15 14 14 14 14 15 15 15 15 14 14 14 14 14 13 14 14 14 14 14 13 13
16 16 16 17 17 18 18 18 19 19 19 20 20 20 20 20 20 19 18 18 17 17 17 17 17 17 17 17 17 17 17 16 16 15 15 16 16 16 15 15 15 15 15
17 17 17 17 18 18 19 19 20 21 21 21 21 21 21 21 21 21 20 20 20 20 20 20 19 19 19 19 19 19 19 18 18 17 17 17 17 17 17 17 17 17 17
18 18 18 18 19 19 19 20 21 22 22 22 23 23 23 22 22 22 22 22 22 23 23 22 22 21 21 21 21 21 21 21 20 19 19 19 19 19 19 19 19 19 19
19 20 20 20 20 21 21 21 22 22 23 23 24 24 24 24 24 24 24 24 24 24 24 24 24 24 23 23 23 22 22 22 22 22 21 21 21 21 21 21 21 21 21
20 21 21 22 22 23 23 22 23 23 24 24 25 25 25 25 25 25 25 25 25 25 25 25 25 25 25 25 25 25 24 24 24 24 23 23 23 23 24 24 23 23 23
22 22 23 23 24 24 24 24 24 25 25 25 26 26 26 26 26 27 27 27 27 27 26 26 26 27 27 27 27 27 27 27 27 26 26 26 25 25 25 25 25 25 25
24 24 24 24 25 25 26 26 26 27 27 27 27 27 27 28 28 28 28 28 28 29 29 28 28 28 29 28 28 28 28 29 29 29 28 28 28 28 27 28 27 27 27
26 26 26 26 26 26 26 27 27 28 28 28 28 29 29 29 30 30 30 30 30 30 30 30 30 30 30 30 30 30 30 30 30 30 30 30 30 30 29 29 29 29 29
27 27 27 27 27 27 27 28 28 29 30 30 30 30 30 30 31 31 31 32 32 32 32 32 32 32 32 32 32 32 32 32 32 32 32 32 32 32 32 32 32 31 31
28 28 28 28 29 29 29 29 30 30 31 31 32 32 32 32 33 33 33 33 34 34 34 34 34 34 34 34 34 34 34 34 34 35 34 35 35 35 35 35 35 34 34
29 29 30 30 30 31 31 31 31 31 32 33 34 34 35 34 34 34 35 35 35 36 36 37 37 36 37 37 36 36 37 37 37 37 37 37 37 38 38 38 38 37 37
31 32 32 32 32 32 32 33 33 33 34 34 35 36 36 37 37 37 37 37 38 38 38 39 39 39 39 39 39 38 38 39 39 40 40 40 40 40 40 40 40 40 39
33 33 33 33 33 34 34 34 35 35 35 36 37 37 38 38 39 39 39 39 39 40 40 41 41 41 41 41 41 41 40 40 41 41 42 42 42 42 42 42 42 43 42
35 35 34 35 35 36 36 36 36 37 37 37 39 39 39 40 41 41 42 41 41 41 42 43 43 43 44 43 43 43 43 43 43 43 43 43 43 43 44 44 44 44 44
37 36 36 37 37 37 38 38 38 37 38 39 40 41 41 42 42 43 43 43 43 43 44 44 45 45 45 45 45 45 45 45 45 45 44 44 44 45 45 45 45 45 45
38 38 38 38 38 38 39 39 39 39 39 40 42 43 43 43 44 44 45 45 45 45 45 46 46 46 47 47 47 48 47 47 47 47 46 46 46 46 46 46 46 46 46
39 39 39 39 39 39 39 40 40 40 40 41 42 43 44 44 45 46 46 47 47 47 47 47 48 48 48 49 50 50 49 49 49 49 48 48 48 47 47 47 47 47 47
38 39 39 39 40 40 41 40 41 41 41 41 42 43 44 45 46 47 48 48 48 49 50 50 50 50 50 51 52 52 52 51 51 50 50 50 49 49 49 49 49 49 49
38 39 39 40 40 40 41 41 41 42 42 42 43 44 44 45 47 48 49 49 49 50 50 50 51 52 52 53 53 54 54 54 53 52 52 51 51 52 51 51 51 51 52
38 39 40 40 40 40 41 42 42 43 43 43 43 44 45 46 48 49 50 50 50 50 51 52 52 53 54 54 54 55 56 56 56 54 53 53 53 54 54 53 53 53 53
39 40 40 40 41 41 42 42 43 43 44 44 43 44 45 46 47 48 49 50 50 51 51 53 54 55 55 55 56 56 57 57 58 57 55 54 54 55 55 54 54 54 54
39 39 39 40 41 42 42 42 43 43 43 44 44 45 46 47 48 49 50 50 51 51 52 53 55 55 56 56 57 57 57 57 57 57 56 55 54 54 55 55 55 55 54
Wind_Direction
251 253 254 255 256 258 258 257 257 259 261 262 263 266 270 271 273 275 273 275 276 276 278 279 280 282 285 286 286 287 283 284 284 282 279 280 283 286 286 287 289 289 288
252 253 254 255 256 256 256 256 257 257 259 260 263 265 268 270 272 274 277 276 277 276 274 275 277 278 281 284 285 287 285 284 281 281 280 279 279 280 281 283 285 286 287
252 253 254 256 257 257 256 256 256 257 257 258 261 265 267 270 272 273 275 276 278 277 275 273 274 276 278 279 281 284 286 286 280 281 281 280 279 279 281 282 281 282 284
254 255 256 258 260 260 258 257 256 257 258 259 261 263 266 268 270 272 274 274 275 274 274 273 273 274 275 276 278 280 282 284 282 281 282 281 279 278 280 281 282 282 284
257 258 258 260 261 262 260 258 257 258 259 261 262 263 265 268 269 270 271 272 272 273 274 274 273 273 274 275 276 277 278 280 282 282 282 280 278 278 278 278 279 281 282
257 260 260 261 262 263 263 261 259 259 260 261 262 264 266 267 268 268 268 270 271 272 274 274 273 272 273 273 273 273 274 275 277 279 278 278 278 278 279 278 278 278 280
256 258 259 261 264 265 264 262 261 261 261 261 263 264 265 266 267 267 268 269 270 271 273 273 272 271 271 272 272 272 273 273 273 275 276 276 276 276 278 278 277 278 279
259 261 263 264 265 267 267 265 262 261 262 263 263 264 265 265 266 267 268 269 270 272 273 272 272 270 270 271 272 272 273 273 274 274 274 274 274 274 275 277 277 278 279
263 264 265 266 267 267 267 266 264 263 264 265 265 265 264 264 265 266 268 269 270 271 272 271 271 271 271 271 272 272 273 274 274 273 273 273 273 274 275 275 276 276 277
264 265 267 268 268 268 267 267 267 266 266 266 266 265 264 265 266 266 267 268 269 270 271 271 271 272 272 272 272 272 272 274 274 274 273 273 272 273 274 274 274 275 275
263 265 267 268 268 267 267 267 267 267 267 267 266 266 266 266 267 267 267 267 268 268 269 270 270 272 272 272 272 272 272 273 274 274 274 273 273 272 272 273 273 273 274
262 264 266 268 268 268 268 268 268 267 267 267 267 266 267 267 268 267 267 267 267 268 269 270 270 271 272 272 272 271 272 273 274 275 275 274 273 272 272 272 273 273 272
262 264 266 266 268 269 269 269 268 268 267 267 266 266 267 268 268 268 267 268 268 269 270 270 270 270 271 273 272 272 272 272 274 274 274 274 274 273 273 272 272 272 272
261 264 265 266 267 268 269 269 270 269 267 266 266 267 267 268 268 268 267 268 268 269 269 269 270 270 271 271 272 272 272 273 274 274 274 274 274 274 274 273 273 272 272
262 265 266 266 267 268 269 270 270 269 268 267 266 267 267 268 268 268 268 268 268 269 269 269 270 270 270 271 271 272 273 273 273 274 274 275 274 274 274 274 273 273 273
264 266 266 267 268 268 269 270 270 270 268 267 266 267 267 268 267 268 268 268 268 269 269 269 269 269 270 271 272 272 273 273 273 273 274 274 274 274 274 274 274 273 273
265 267 267 267 268 269 270 270 271 270 268 267 266 267 268 268 268 267 268 268 268 269 269 270 270 270 270 271 272 273 273 273 274 274 274 274 274 274 274 274 274 274 273
265 267 267 268 269 270 271 271 272 271 268 267 267 267 268 267 268 267 268 268 268 268 269 269 270 270 271 271 272 272 273 273 274 274 274 274 274 274 274 274 274 274 273
266 267 267 268 270 271 271 272 272 272 270 269 268 268 268 268 267 267 267 268 268 268 269 269 269 270 270 270 271 272 272 273 274 274 274 274 274 275 274 274 274 273 273
268 268 268 269 270 271 272 273 273 273 273 272 270 269 269 269 268 266 267 268 268 268 269 270 269 269 270 270 270 271 272 273 273 274 274 274 274 274 274 274 273 272 271
268 269 269 270 271 271 273 274 274 273 274 274 272 270 270 270 268 267 267 267 268 269 269 269 269 270 270 270 270 270 271 272 273 274 274 274 274 274 274 273 273 272 271
269 269 269 270 271 272 273 275 275 274 274 275 273 271 271 270 269 268 267 268 269 270 270 269 270 270 270 271 271 271 270 271 272 272 273 273 273 273 272 271 271 271 271
271 270 269 270 272 273 274 275 276 276 276 276 274 273 272 271 269 269 268 269 269 270 270 270 271 272 272 272 272 272 272 271 270 271 272 272 272 272 272 271 271 270 271
271 270 270 271 272 273 274 275 275 276 277 277 275 274 274 273 271 270 269 268 269 271 271 272 272 272 272 272 272 272 273 273 272 272 272 272 271 272 272 271 271 271 271
271 270 269 271 271 272 273 274 275 276 277 278 276 275 275 275 273 272 271 270 271 272 273 274 274 273 272 272 273 273 273 274 274 273 273 272 271 271 271 270 270 271 271
271 271 271 270 271 272 273 274 275 276 277 277 276 276 276 276 276 275 274 273 273 274 274 275 274 275 274 273 273 273 274 274 274 274 274 273 272 270 270 270 269 270 270
Height
5863 5863 5864 5864 5865 5865 5866 5866 5866 5867 5867 5868 5868 5868 5868 5869 5869 5868 5868 5868 5868 5868 5868 5868 5867 5867 5867 5866 5866 5865 5865 5864 5864 5863 5863 5862 5862 5861 5861 5861 5860 5859 5859
5861 5861 5862 5862 5862 5863 5863 5864 5864 5865 5865 5866 5866 5866 5867 5867 5867 5867 5867 5867 5867 5866 5866 5866 5866 5865 5865 5865 5864 5864 5863 5863 5862 5862 5861 5861 5860 5860 5859 5859 5858 5858 5857
5858 5859 5859 5860 5860 5860 5861 5861 5862 5862 5863 5864 5864 5864 5864 5865 5865 5865 5865 5865 5864 5864 5864 5864 5864 5863 5863 5863 5862 5862 5861 5861 5860 5860 5859 5858 5858 5858 5857 5857 5856 5855 5855
5855 5856 5857 5857 5857 5858 5858 5859 5859 5860 5860 5861 5861 5862 5862 5862 5862 5863 5862 5862 5862 5862 5862 5861 5861 5861 5861 5860 5860 5859 5859 5858 5858 5857 5857 5856 5856 5855 5855 5854 5854 5853 5852
5852 5853 5853 5854 5854 5854 5855 5855 5856 5857 5857 5858 5858 5858 5859 5859 5859 5859 5859 5859 5859 5859 5859 5859 5858 5858 5858 5857 5857 5856 5856 5856 5855 5855 5854 5853 5853 5852 5852 5851 5851 5850 5850
5849 5849 5850 5850 5850 5851 5851 5852 5852 5853 5853 5854 5854 5855 5855 5855 5856 5856 5856 5856 5856 5856 5856 5855 5855 5854 5854 5854 5853 5853 5853 5852 5852 5851 5851 5850 5850 5849 5849 5848 5848 5847 5846
5845 5845 5846 5846 5847 5847 5847 5848 5848 5849 5849 5850 5850 5851 5851 5852 5852 5852 5852 5852 5852 5852 5852 5851 5851 5851 5850 5850 5849 5849 5849 5848 5848 5848 5847 5847 5846 5846 5845 5845 5844 5844 5843
5841 5842 5842 5842 5842 5843 5843 5844 5844 5845 5845 5845 5846 5846 5847 5847 5847 5847 5848 5848 5848 5847 5847 5847 5847 5846 5846 5845 5845 5845 5845 5844 5844 5844 5843 5843 5842 5842 5841 5841 5840 5840 5839
5837 5837 5837 5837 5838 5838 5839 5839 5839 5840 5840 5841 5841 5841 5842 5842 5842 5843 5843 5843 5843 5843 5842 5842 5842 5841 5841 5841 5840 5840 5840 5839 5839 5839 5838 5838 5838 5837 5837 5836 5836 5835 5834
5832 5832 5833 5833 5833 5833 5833 5834 5834 5835 5835 5835 5836 5836 5836 5837 5837 5838 5838 5838 5838 5837 5837 5837 5837 5836 5836 5836 5835 5835 5835 5834 5834 5833 5833 5833 5832 5832 5832 5831 5831 5830 5829
5827 5827 5828 5828 5828 5828 5828 5828 5829 5829 5829 5830 5830 5830 5831 5831 5832 5832 5832 5832 5832 5832 5832 5831 5831 5831 5830 5830 5830 5829 5829 5829 5828 5828 5828 5827 5827 5826 5826 5825 5825 5824 5824
5821 5822 5822 5822 5822 5822 5822 5822 5823 5823 5823 5824 5824 5824 5825 5825 5825 5826 5826 5826 5826 5826 5825 5825 5825 5825 5824 5824 5824 5823 5823 5823 5822 5822 5821 5821 5820 5820 5820 5819 5819 5818 5818
5816 5816 5816 5816 5816 5817 5817 5817 5817 5817 5817 5817 5817 5818 5818 5818 5819 5819 5819 5819 5819 5819 5819 5819 5819 5819 5818 5818 5817 5817 5817 5816 5816 5816 5815 5814 5814 5813 5813 5812 5812 5811 5811
5810 5810 5810 5810 5810 5810 5810 5810 5810 5810 5810 5810 5810 5810 5811 5811 5811 5812 5812 5812 5812 5812 5812 5812 5812 5812 5811 5811 5810 5810 5810 5809 5809 5808 5808 5807 5806 5806 5805 5805 5804 5804 5804
5802 5803 5803 5803 5803 5803 5803 5803 5803 5802 5802 5802 5802 5803 5803 5803 5804 5804 5804 5804 5804 5804 5804 5804 5804 5804 5804 5803 5803 5802 5802 5801 5801 5800 5800 5799 5799 5798 5797 5797 5796 5796 5795
5794 5795 5795 5795 5795 5795 5795 5795 5795 5794 5794 5794 5794 5794 5794 5795 5795 5795 5796 5796 5796 5796 5796 5796 5796 5795 5795 5795 5794 5794 5793 5793 5792 5792 5791 5791 5790 5789 5789 5788 5788 5787 5787
5786 5787 5787 5787 5787 5787 5786 5786 5786 5785 5785 5785 5785 5785 5785 5785 5786 5786 5786 5787 5787 5787 5787 5786 5786 5786 5786 5786 5785 5785 5784 5784 5783 5782 5782 5781 5781 5780 5780 5779 5778 5778 5777
5778 5778 5778 5778 5778 5778 5777 5777 5776 5776 5775 5775 5775 5775 5775 5775 5776 5776 5776 5777 5777 5777 5777 5777 5776 5776 5776 5776 5776 5775 5775 5774 5773 5773 5772 5771 5771 5770 5770 5769 5768 5768 5767
5768 5768 5768 5768 5768 5768 5768 5767 5766 5766 5765 5765 5765 5764 5764 5765 5765 5765 5765 5766 5767 5767 5767 5766 5766 5766 5765 5765 5765 5765 5764 5763 5763 5762 5761 5760 5760 5759 5759 5758 5757 5757 5756
5758 5758 5759 5758 5758 5758 5757 5757 5756 5755 5755 5754 5753 5753 5753 5753 5753 5754 5754 5755 5755 5755 5755 5755 5755 5754 5754 5754 5753 5753 5753 5752 5751 5751 5750 5749 5748 5747 5747 5746 5746 5745 5745
5748 5748 5748 5748 5748 5747 5747 5746 5746 5745 5744 5743 5742 5741 5741 5741 5741 5742 5743 5743 5744 5744 5744 5744 5743 5743 5742 5741 5741 5741 5741 5740 5739 5739 5738 5737 5736 5735 5735 5734 5734 5733 5733
5737 5737 5737 5737 5737 5737 5737 5736 5735 5734 5733 5732 5730 5729 5729 5729 5729 5730 5730 5731 5732 5732 5732 5731 5731 5730 5730 5728 5727 5727 5728 5729 5727 5726 5725 5724 5723 5723 5722 5721 5721 5720 5720
5727 5726 5726 5726 5727 5726 5726 5725 5724 5722 5721 5720 5719 5718 5718 5717 5717 5718 5718 5718 5718 5718 5718 5718 5717 5717 5716 5715 5713 5712 5712 5714 5714 5714 5712 5711 5710 5709 5708 5708 5708 5707 5706
5717 5716 5716 5716 5716 5716 5715 5714 5713 5712 5710 5709 5708 5707 5706 5705 5705 5705 5705 5705 5705 5704 5704 5704 5703 5702 5701 5701 5699 5697 5697 5697 5697 5699 5699 5697 5695 5694 5694 5694 5693 5692 5692
5707 5706 5706 5706 5706 5705 5704 5703 5702 5701 5699 5698 5696 5696 5695 5694 5693 5693 5692 5692 5691 5691 5690 5689 5688 5687 5685 5685 5685 5683 5682 5681 5680 5680 5683 5683 5681 5679 5679 5678 5677 5677 5676
5697 5696 5696 5695 5695 5695 5694 5693 5692 5690 5689 5687 5685 5685 5684 5682 5681 5680 5679 5679 5678 5677 5676 5675 5674 5672 5671 5670 5669 5668 5666 5666 5665 5664 5665 5666 5665 5665 5663 5662 5662 5661 5660